Starlink 33568

operational
NORAD ID: 62779 Int'l Des: 2025-015 Owner: SPXS Country: US Constellation: starlink
LEOCIRCULAR

About Starlink 33568

Description loading...

Live Position

Loading 3D Globe...

Upcoming Passes

Altitude History

Altitude vs Time

uPlot chart will show altitude changes over time

Two-Line Element Set

1 62779U 25015X 26061.12867615 .00013762 00000-0 47604-3 0 9998
2 62779 53.1610 357.5674 0000921 88.6054 271.5052 15.30190685 63165
Epoch: Mar 2, 2026 • Age: 29 hours

Current Status

Altitude 475.3 km
Velocity 7.63 km/s
Sub-Earth Point 19.48°N, 76.36°W
Launch Date Jan 21, 2025
Age 1.1 years
Type internet

Technical Details

Classification Payload
Mass 575.00 kg
Dry Mass 530.00 kg
Total Mass 575.00 kg
Length 0.30 m
Diameter 4.10 m
Span 29.00 m
Shape Box + pan
Manufacturer SPXS
Bus Type Starlink V2MO
Phase Status In Orbit
Owner/State SPXS/US

Large Constellations

Loading constellations...